Greenwood, SC

5:49 PM EDT on October 20, 2017 (GMT -0400)
Greenwood County

Weather History for KGRD - October, 2011

Change the Weather History Date:

Wednesday, October 26, 2011

  Actual Average (KAND) Record (KAND)
Temperature  
Mean Temperature 64 °F -  
Max Temperature 78 °F 71 °F 84 °F (1963)
Min Temperature 51 °F 48 °F 30 °F (2013)
Degree Days  
Heating Degree Days 1    
Growing Degree Days 14 (Base 50)    
Moisture  
Dew Point 50 °F    
Average Humidity 77    
Maximum Humidity 100    
Minimum Humidity 32    
Precipitation  
Precipitation 0.00 in - - ()
Sea Level Pressure  
Sea Level Pressure 30.09 in    
Wind  
Wind Speed 5 mph (SW)    
Max Wind Speed 13 mph    
Max Gust Speed 16 mph    
Visibility 7 miles    
Events Fog    
Averages and records for this station are not official NWS values.
T = Trace of Precipitation, MM = Missing Value Source: NWS Daily Summary

Daily Weather History Graph

Daily Weather History Graph

Search for Another Location

Airport or City:

Trip Planner

Search our weather history database for the weather conditions in past years. The results will help you decide how hot, cold, wet, or windy it might be!

Date:

Astronomy

Oct. 26, 2011 Rise Set
Actual Time 7:42 AM EDT 6:41 PM EDT
Civil Twilight 7:17 AM EDT 7:07 PM EDT
Nautical Twilight 6:47 AM EDT 7:36 PM EDT
Astronomical Twilight 6:18 AM EDT 8:05 PM EDT
Moon 7:26 AM EDT (10/26) 6:26 PM EDT (10/26)
Length of Visible Light 11h 50m
Length of Day
10h 58m
Waning Crescent, 0% of the Moon is Illuminated
Oct 26
Waning Crescent
Oct 26
New
Nov 2
First Quarter
Nov 10
Full
Nov 18
Last Quarter

Hourly Weather History & Observations

Time (EDT) Temp. Dew Point Humidity Pressure Visibility Wind Dir Wind Speed Gust Speed Precip Events Conditions
12:56 AM 51.1 °F 48.0 °F 89% 30.19 in 10.0 mi Calm Calm - N/A   Clear
1:56 AM 55.9 °F 50.0 °F 80% 30.17 in 10.0 mi SSW 6.9 mph - N/A   Clear
2:56 AM 55.9 °F 51.1 °F 84% 30.14 in 10.0 mi SSW 6.9 mph - N/A   Clear
3:56 AM 55.0 °F 52.0 °F 89% 30.13 in 10.0 mi SSW 6.9 mph - N/A   Clear
4:56 AM 54.0 °F 52.0 °F 93% 30.11 in 8.0 mi SSW 6.9 mph - N/A   Clear
5:56 AM 54.0 °F 52.0 °F 93% 30.12 in 7.0 mi SW 9.2 mph - N/A   Clear
6:56 AM 52.0 °F 51.1 °F 97% 30.14 in 4.0 mi SW 4.6 mph - N/A   Clear
7:45 AM 51.8 °F 51.8 °F 100% 30.14 in 2.0 mi WSW 3.5 mph - N/A   Clear
7:53 AM 51.8 °F 51.8 °F 100% 30.14 in 1.8 mi Calm Calm - N/A   Clear
7:56 AM 53.1 °F 52.0 °F 96% 30.14 in 1.8 mi Calm Calm - N/A   Clear
8:07 AM 53.6 °F 51.8 °F 94% 30.15 in 1.5 mi Calm Calm - N/A   Scattered Clouds
8:15 AM 53.6 °F 51.8 °F 94% 30.15 in 0.8 mi WSW 3.5 mph - N/A   Mostly Cloudy
8:28 AM 53.6 °F 53.6 °F 100% 30.15 in 0.2 mi WSW 3.5 mph - N/A Fog Fog
8:49 AM 53.6 °F 53.6 °F 100% 30.15 in 0.8 mi SW 3.5 mph - N/A   Overcast
8:56 AM 54.0 °F 54.0 °F 100% 30.15 in 1.0 mi SSW 4.6 mph - N/A   Overcast
9:10 AM 53.6 °F 53.6 °F 100% 30.15 in 2.5 mi SSW 5.8 mph - N/A   Mostly Cloudy
9:19 AM 55.4 °F 55.4 °F 100% 30.15 in 3.0 mi SW 5.8 mph - N/A   Scattered Clouds
9:56 AM 60.1 °F 54.0 °F 80% 30.14 in 10.0 mi SW 10.4 mph 16.1 mph N/A   Clear
10:56 AM 64.9 °F 53.1 °F 65% 30.14 in 10.0 mi WSW 12.7 mph - N/A   Clear
12:56 PM 73.9 °F 50.0 °F 43% 30.09 in 10.0 mi SW 6.9 mph - N/A   Clear
1:56 PM 75.9 °F 46.0 °F 35% 30.06 in 10.0 mi West 12.7 mph - N/A   Clear
3:56 PM 77.0 °F 45.0 °F 32% 30.00 in 10.0 mi WSW 10.4 mph - N/A   Clear
4:56 PM 75.9 °F 46.0 °F 35% 29.99 in 10.0 mi SW 12.7 mph - N/A   Clear
5:56 PM 73.0 °F 46.9 °F 39% 29.98 in 10.0 mi SSW 9.2 mph - N/A   Clear
6:56 PM 66.9 °F 48.0 °F 51% 29.98 in 10.0 mi SSW 5.8 mph - N/A   Clear
7:56 PM 63.0 °F 48.0 °F 58% 29.98 in 10.0 mi SSW 6.9 mph - N/A   Clear
8:56 PM 61.0 °F 48.0 °F 62% 29.99 in 10.0 mi SSW 5.8 mph - N/A   Clear
9:56 PM 62.1 °F 48.0 °F 60% 29.99 in 10.0 mi SSW 8.1 mph - N/A   Clear
10:56 PM 59.0 °F 48.0 °F 67% 29.99 in 10.0 mi SSW 5.8 mph - N/A   Clear
11:56 PM 57.0 °F 48.0 °F 72% 29.98 in 10.0 mi SW 6.9 mph - N/A   Clear